[[{"header":{"parameterUnit":"m.s-1","parameterCategory":2,"la1":30.2991,"la2":30.254,"lo1":-89.0895,"lo2":-89.0444,"dy":0.0017,"dx":0.0017,"nx":28,"ny":28,"refTime":"2024-08-20T09:00:00:Z","depth":"0","parameterNumber":2,"parameterNumberName":"U-component_of_CURRENTS"},"data":[0,0,0,0,0,0,0,0,0,0,0,0,0,0,0,0,0,0,0,0,0,0,0,0,0,0,0,0,0,0,0,0,0,0,0,0,0,0,0,0,0,0,0,0,0,0,0,0,0,0,0,0,0,0,0,0,0,0,-0.2581,-0.2582,0,-0.2645,-0.2645,-0.2646,-0.2609,-0.2607,-0.2606,-0.2605,-0.2521,-0.252,-0.2519,0,0,0,0,0,0,0,0,0,0,0,0,0,-0.2365,-0.2369,-0.2581,-0.2582,-0.2583,-0.2645,-0.2645,-0.2646,-0.2609,-0.2607,-0.2606,-0.2604,-0.2521,-0.252,-0.2519,0,0,0,0,0,0,0,0,0,0,0,0,0,-0.2442,-0.237,-0.2581,-0.2577,-0.2577,-0.2645,-0.2645,-0.2646,-0.2609,-0.2607,-0.2605,-0.2604,-0.2521,-0.252,-0.2518,-0.2548,0,0,-0.2514,-0.2513,0,0,0,0,0,0,0,0,-0.2437,-0.2449,-0.2576,-0.2577,-0.2578,-0.2622,-0.2539,-0.2608,-0.261,-0.2591,-0.2605,-0.2603,-0.2546,-0.2542,-0.2553,-0.2544,-0.2541,-0.2514,-0.2513,-0.2512,-0.2512,0,0,0,0,0,0,0,-0.2432,-0.2446,-0.2601,-0.2578,-0.2579,-0.2551,-0.2559,-0.2551,-0.2572,-0.2593,-0.2592,-0.2608,-0.2544,-0.2555,-0.255,-0.2539,-0.2514,-0.2512,-0.2511,-0.2511,-0.2525,-0.2526,0,0,0,0,0,0,-0.2442,-0.2442,-0.2599,-0.2603,-0.2507,-0.2557,-0.2566,-0.2605,-0.2575,-0.2571,-0.261,-0.2606,-0.2558,-0.2552,-0.2547,-0.257,-0.2512,-0.2511,-0.251,-0.2524,-0.2526,-0.2527,0,0,0,0,0,0,-0.2437,-0.2456,-0.2596,-0.2526,-0.2542,-0.2564,-0.2607,-0.2608,-0.2611,-0.2591,-0.2582,-0.2611,-0.2556,-0.2549,-0.2534,-0.2566,-0.251,-0.2508,-0.2522,-0.2524,-0.2526,-0.2621,0,0,0,0,0,0,-0.2431,-0.2455,-0.2463,-0.2528,-0.2547,-0.264,-0.2609,-0.261,-0.2627,-0.2622,-0.259,-0.2581,-0.2554,-0.2537,-0.2533,-0.2563,-0.2507,-0.2521,-0.2523,-0.2526,-0.2616,-0.2626,-0.2634,0,0,0,0,0,-0.2423,-0.2449,-0.2464,-0.2482,-0.2567,-0.2642,-0.2649,-0.2652,-0.2629,-0.2643,-0.2612,-0.2581,-0.255,-0.2537,-0.2532,-0.2562,-0.252,-0.2523,-0.2525,-0.2612,-0.2624,-0.2634,0,0,0,0,0,0,-0.2353,-0.2451,-0.2467,-0.2519,-0.258,-0.2638,-0.2649,-0.2657,-0.2648,-0.2634,-0.2595,-0.2586,-0.2591,-0.2561,-0.2548,-0.2573,-0.2531,-0.2533,-0.2599,-0.261,-0.2619,-0.2607,-0.2506,0,0,0,0,0,-0.2349,-0.2388,-0.2485,-0.2518,-0.256,-0.2605,-0.2627,-0.2645,-0.266,-0.2654,-0.2633,-0.2608,-0.2605,-0.2591,-0.2584,-0.2592,-0.2574,-0.2609,-0.2618,-0.2626,-0.2613,-0.2629,-0.2639,-0.2537,-0.2537,-0.2537,0,0,-0.2324,-0.2384,-0.2402,-0.2504,-0.255,-0.2621,-0.2612,-0.2666,-0.2699,-0.2646,-0.2656,-0.2642,-0.2615,-0.2631,-0.263,-0.2604,-0.2649,-0.2629,-0.2636,-0.2619,-0.2633,-0.2643,-0.2652,-0.2539,-0.2538,-0.2538,0,0,-0.2307,-0.2366,-0.2401,-0.2475,-0.2565,-0.2614,-0.2635,-0.2707,-0.2712,-0.2739,-0.271,-0.2711,-0.2697,-0.2693,-0.2686,-0.2739,-0.2702,-0.2736,-0.2766,-0.2783,-0.2792,-0.2799,-0.2806,-0.2813,-0.2734,-0.2735,-0.2735,0,-0.2271,-0.2341,-0.2417,-0.2492,-0.2549,-0.2617,-0.2682,-0.2719,-0.2762,-0.2768,-0.2747,-0.2753,-0.2731,-0.2755,-0.2766,-0.2761,-0.2753,-0.273,-0.2796,-0.2802,-0.2808,-0.2813,-0.2819,-0.2739,-0.2739,-0.2738,-0.2738,0,-0.2305,-0.2361,-0.2398,-0.2517,-0.2591,-0.2659,-0.2757,-0.2795,-0.281,-0.2835,-0.286,-0.2845,-0.2837,-0.2849,-0.2815,-0.2852,-0.2829,-0.2814,-0.277,-0.2824,-0.2826,-0.2831,-0.2746,-0.2745,-0.2743,-0.2742,0,0,-0.2232,-0.2385,-0.2396,-0.2444,-0.2614,-0.2671,-0.2763,-0.2849,-0.2882,-0.2915,-0.2938,-0.2949,-0.2933,-0.2923,-0.2904,-0.2913,-0.2953,-0.2871,-0.287,-0.288,-0.2981,-0.2832,-0.2823,-0.2948,-0.2949,-0.295,-0.2973,0,-0.223,-0.2324,-0.2427,-0.252,-0.2588,-0.2711,-0.279,-0.2876,-0.2927,-0.2967,-0.2978,-0.2991,-0.2967,-0.2959,-0.2972,-0.2949,-0.2966,-0.2947,-0.2923,-0.2922,-0.2785,-0.2823,-0.261,-0.2599,-0.2977,-0.2978,-0.2978,0,-0.2242,-0.2298,-0.2382,-0.2515,-0.2561,-0.2629,-0.2764,-0.2841,-0.2945,-0.2985,-0.3025,-0.3032,-0.305,-0.302,-0.3032,-0.3016,-0.3,-0.2991,-0.2992,-0.2814,-0.278,-0.2602,-0.2593,-0.2545,-0.2985,-0.2985,-0.2984,0,-0.214,-0.227,-0.2314,-0.2373,-0.2546,-0.2589,-0.2671,-0.2814,-0.2873,-0.2976,-0.3018,-0.3064,-0.3062,-0.307,-0.3046,-0.3037,-0.3053,-0.3045,-0.2911,-0.2901,-0.269,-0.2658,-0.2623,-0.3064,-0.3064,-0.3064,-0.3064,0,-0.2117,-0.215,-0.2249,-0.2287,-0.2339,-0.2493,-0.2563,-0.2676,-0.2805,-0.2845,-0.2983,-0.3,-0.3069,-0.3085,-0.3069,-0.299,-0.3077,-0.2909,-0.2892,-0.2717,-0.2688,-0.2609,-0.2643,-0.3065,-0.3064,-0.3064,-0.3064,0,-0.2023,-0.2096,-0.2144,-0.2266,-0.2298,-0.233,-0.2481,-0.2526,-0.2688,-0.2745,-0.2772,-0.2939,-0.2941,-0.3011,-0.3021,-0.2986,-0.2871,-0.2912,-0.2694,-0.2648,-0.2422,-0.2468,-0.2419,-0.2357,-0.2748,-0.2745,-0.2742,0,-0.1987,-0.1996,-0.2084,-0.2096,-0.2143,-0.2203,-0.2251,-0.2432,-0.2482,-0.2663,-0.2661,-0.2743,-0.273,-0.2751,-0.2701,-0.2671,-0.2718,-0.2502,-0.2434,-0.2366,-0.241,-0.2458,-0.2416,-0.2216,-0.2209,-0.2203,-0.2198,0,-0.1908,-0.1927,-0.1963,-0.1977,-0.2002,-0.2049,-0.2112,-0.2142,-0.2321,-0.2388,-0.2439,-0.2447,-0.244,-0.2313,-0.2322,-0.2283,-0.2379,-0.2375,-0.2369,-0.2027,-0.2016,-0.1961,-0.2264,-0.2147,-0.2152,-0.2156,-0.2158,-0.216,-0.1828,-0.1818,-0.1847,-0.1852,-0.1877,-0.1884,-0.1875,-0.1941,-0.1997,-0.2058,-0.2131,-0.2103,-0.2031,-0.1964,-0.1924,-0.1788,-0.1948,-0.1745,-0.1824,-0.1893,-0.1767,-0.1939,-0.1758,-0.1761,-0.1764,-0.1766,-0.1768,0,-0.1726,-0.1724,-0.1721,-0.1729,-0.1694,-0.1755,-0.1778,-0.1749,-0.1731,-0.1768,-0.1766,-0.1682,-0.1528,-0.1509,-0.1373,-0.1289,-0.1284,-0.1303,-0.1334,-0.1332,-0.1506,-0.1408,-0.1064,-0.1064,-0.1064,-0.1064,-0.1064,-0.1064,-0.1676,-0.1633,-0.1627,-0.1543,-0.1537,-0.1464,-0.1445,-0.1419,-0.1424,-0.1363,-0.1336,-0.1361,-0.1338,-0.1314,-0.1139,-0.1056,-0.108,-0.1002,-0.1144,-0.1265,-0.1313,-0.1359,-0.1273,-0.0906,-0.0906,-0.0847,-0.0847,-0.0847]},{"header":{"parameterUnit":"m.s-1","parameterCategory":2,"la1":30.2991,"la2":30.254,"lo1":-89.0895,"lo2":-89.0444,"dy":0.0017,"dx":0.0017,"nx":28,"ny":28,"refTime":"2024-08-20T09:00:00:Z","depth":"0","parameterNumber":3,"parameterNumberName":"V-component_of_CURRENTS"},"data":[0,0,0,0,0,0,0,0,0,0,0,0,0,0,0,0,0,0,0,0,0,0,0,0,0,0,0,0,0,0,0,0,0,0,0,0,0,0,0,0,0,0,0,0,0,0,0,0,0,0,0,0,0,0,0,0,0,0,-0.0241,-0.0241,0,-0.0217,-0.0217,-0.0217,-0.0188,-0.0188,-0.0187,-0.0187,-0.0126,-0.0125,-0.0124,0,0,0,0,0,0,0,0,0,0,0,0,0,-0.0231,-0.0231,-0.0241,-0.0241,-0.024,-0.0218,-0.0217,-0.0217,-0.0188,-0.0188,-0.0187,-0.0187,-0.0127,-0.0125,-0.0124,0,0,0,0,0,0,0,0,0,0,0,0,0,-0.0223,-0.0231,-0.0241,-0.0224,-0.0223,-0.0218,-0.0217,-0.0217,-0.0188,-0.0188,-0.0187,-0.0187,-0.0127,-0.0126,-0.0124,-0.0121,0,0,-0.0118,-0.0117,0,0,0,0,0,0,0,0,-0.0223,-0.0223,-0.0227,-0.0226,-0.0224,-0.0206,-0.0191,-0.0183,-0.0188,-0.02,-0.0187,-0.0186,-0.0151,-0.0147,-0.0142,-0.0118,-0.0116,-0.0117,-0.0116,-0.0115,-0.0115,0,0,0,0,0,0,0,-0.0224,-0.0224,-0.023,-0.0227,-0.0225,-0.0208,-0.0207,-0.019,-0.0177,-0.0199,-0.0197,-0.0197,-0.015,-0.0144,-0.0141,-0.0115,-0.0117,-0.0116,-0.0114,-0.0114,-0.0089,-0.009,0,0,0,0,0,0,-0.0232,-0.0225,-0.0231,-0.0229,-0.0224,-0.0209,-0.0207,-0.0211,-0.0177,-0.0173,-0.0197,-0.0196,-0.0148,-0.0143,-0.0138,-0.0142,-0.0115,-0.0114,-0.0112,-0.0089,-0.009,-0.009,0,0,0,0,0,0,-0.0232,-0.0233,-0.0232,-0.0227,-0.0226,-0.021,-0.0215,-0.0211,-0.0206,-0.0177,-0.0171,-0.0196,-0.0147,-0.0141,-0.0133,-0.0139,-0.0113,-0.0111,-0.0088,-0.0089,-0.009,-0.0143,0,0,0,0,0,0,-0.0232,-0.0233,-0.0241,-0.0228,-0.0227,-0.024,-0.0215,-0.0211,-0.0207,-0.0205,-0.0174,-0.0168,-0.0146,-0.0137,-0.0131,-0.0136,-0.0109,-0.0088,-0.0089,-0.009,-0.0141,-0.0146,-0.015,0,0,0,0,0,-0.0232,-0.0247,-0.0241,-0.0242,-0.0237,-0.0241,-0.0239,-0.0224,-0.0208,-0.0215,-0.0194,-0.0169,-0.0139,-0.0136,-0.0129,-0.0133,-0.0087,-0.0088,-0.0089,-0.0139,-0.0145,-0.015,0,0,0,0,0,0,-0.0251,-0.0245,-0.0239,-0.0252,-0.0251,-0.0237,-0.0243,-0.0228,-0.0216,-0.0212,-0.0178,-0.0172,-0.0167,-0.0145,-0.0142,-0.0129,-0.0107,-0.0108,-0.0147,-0.0152,-0.0157,-0.0159,-0.0108,0,0,0,0,0,-0.0259,-0.0265,-0.0259,-0.0272,-0.0274,-0.0258,-0.0257,-0.0246,-0.0233,-0.0227,-0.0206,-0.0182,-0.0167,-0.0156,-0.0142,-0.0135,-0.0121,-0.0132,-0.0137,-0.0141,-0.0139,-0.0121,-0.0124,-0.0094,-0.0094,-0.0094,0,0,-0.027,-0.0268,-0.0272,-0.0276,-0.0273,-0.0286,-0.0256,-0.026,-0.0267,-0.0223,-0.0226,-0.02,-0.0171,-0.0167,-0.0162,-0.0148,-0.0149,-0.0143,-0.0146,-0.0142,-0.0122,-0.0125,-0.0128,-0.0095,-0.0095,-0.0095,0,0,-0.0301,-0.0296,-0.0315,-0.0315,-0.0316,-0.0308,-0.0312,-0.03,-0.0293,-0.0294,-0.0261,-0.0239,-0.0222,-0.0196,-0.0181,-0.0201,-0.0177,-0.0197,-0.0217,-0.02,-0.0202,-0.0204,-0.0218,-0.022,-0.0195,-0.0195,-0.0195,0,-0.0317,-0.0337,-0.0322,-0.0341,-0.0346,-0.0322,-0.0345,-0.0337,-0.0323,-0.0312,-0.0305,-0.0262,-0.0235,-0.0215,-0.0221,-0.021,-0.0209,-0.0199,-0.0206,-0.0207,-0.0208,-0.0222,-0.0224,-0.0198,-0.0198,-0.0197,-0.0197,0,-0.0364,-0.0377,-0.039,-0.0404,-0.0408,-0.0423,-0.0413,-0.0407,-0.0393,-0.0375,-0.0356,-0.032,-0.0288,-0.0278,-0.0256,-0.0242,-0.0245,-0.0219,-0.0193,-0.0214,-0.0228,-0.0229,-0.0202,-0.0201,-0.02,-0.0199,0,0,-0.0406,-0.0421,-0.0424,-0.0442,-0.0441,-0.0454,-0.0457,-0.0453,-0.0452,-0.0428,-0.0422,-0.0383,-0.0347,-0.0328,-0.029,-0.0269,-0.028,-0.0249,-0.0247,-0.0267,-0.0271,-0.0182,-0.0175,-0.0256,-0.0256,-0.0256,-0.0289,0,-0.045,-0.05,-0.0487,-0.053,-0.0557,-0.0526,-0.0533,-0.0518,-0.05,-0.0488,-0.0434,-0.042,-0.0372,-0.0358,-0.0329,-0.0292,-0.0281,-0.0275,-0.0244,-0.0244,-0.0164,-0.0171,-0.0149,-0.0166,-0.0289,-0.0289,-0.029,0,-0.05,-0.0528,-0.0579,-0.0594,-0.0602,-0.0615,-0.0612,-0.0615,-0.0576,-0.0556,-0.0514,-0.0476,-0.0437,-0.0398,-0.0345,-0.0346,-0.0313,-0.0285,-0.0285,-0.0178,-0.0155,-0.0158,-0.0163,-0.0037,-0.0291,-0.0291,-0.0291,0,-0.0553,-0.0587,-0.0632,-0.064,-0.0655,-0.0659,-0.0661,-0.0632,-0.0634,-0.0597,-0.0589,-0.0533,-0.0509,-0.0458,-0.0376,-0.0373,-0.0322,-0.0311,-0.0206,-0.0202,-0.016,-0.015,-0.0035,-0.0276,-0.0276,-0.0276,-0.0276,0,-0.0608,-0.0641,-0.066,-0.0689,-0.0733,-0.0714,-0.0741,-0.0722,-0.0697,-0.0702,-0.0628,-0.0608,-0.052,-0.0468,-0.0406,-0.03,-0.0344,-0.0209,-0.0192,-0.018,-0.0172,-0.004,0.0028,-0.0277,-0.0277,-0.0277,-0.0276,0,-0.066,-0.0672,-0.0728,-0.0754,-0.0763,-0.0796,-0.0805,-0.082,-0.0777,-0.0782,-0.0774,-0.068,-0.0589,-0.0494,-0.0408,-0.0328,-0.0153,-0.0198,-0.0197,-0.0176,0.0059,0.0123,0.0271,0.0362,-0.0105,-0.0102,-0.0101,0,-0.0691,-0.0725,-0.0786,-0.0822,-0.0836,-0.0873,-0.0896,-0.087,-0.0879,-0.0819,-0.0826,-0.0722,-0.0642,-0.0464,-0.0297,-0.0169,-0.006,-0.0069,-0.0032,0.0089,0.017,0.0214,0.0283,-0.0032,-0.003,-0.0028,-0.0027,0,-0.0745,-0.0765,-0.0815,-0.0893,-0.0935,-0.0987,-0.1011,-0.1027,-0.099,-0.0964,-0.09,-0.0827,-0.0603,-0.0396,-0.0179,-0.01,0.0064,-0.0023,0.0099,0.0251,0.0307,0.0396,-0.0053,-0.001,-0.0012,-0.0013,-0.0014,-0.0015,-0.0775,-0.0827,-0.0887,-0.0959,-0.1016,-0.1077,-0.1107,-0.1116,-0.1116,-0.1058,-0.0968,-0.0827,-0.0497,-0.0158,-0.004,0.0249,0.0235,0.0311,0.0372,0.0399,0.0533,0.013,0.0214,0.0213,0.0213,0.0213,0.0212,0,-0.0805,-0.0866,-0.0943,-0.1032,-0.1101,-0.1116,-0.1165,-0.1172,-0.1165,-0.1082,-0.0992,-0.0631,-0.03,0.002,0.0435,0.0602,0.0637,0.0686,0.0729,0.0776,0.0401,0.0453,0.0599,0.0599,0.0599,0.0599,0.0598,0.0598,-0.0824,-0.0903,-0.0951,-0.1074,-0.1134,-0.1199,-0.1221,-0.1222,-0.1165,-0.0992,-0.079,-0.0617,-0.0135,0.0537,0.0918,0.0944,0.1105,0.1103,0.1205,0.0919,0.0887,0.0857,0.0923,0.1165,0.1166,0.1547,0.1551,0.1553]}],[{"header":{"parameterUnit":"m.s-1","parameterCategory":2,"la1":30.2991,"la2":30.254,"lo1":-89.0895,"lo2":-89.0444,"dy":0.0017,"dx":0.0017,"nx":28,"ny":28,"refTime":"2024-08-20T09:00:00:Z","depth":"2","parameterNumber":2,"parameterNumberName":"U-component_of_CURRENTS"},"data":[0,0,0,0,0,0,0,0,0,0,0,0,0,0,0,0,0,0,0,0,0,0,0,0,0,0,0,0,0,0,0,0,0,0,0,0,0,0,0,0,0,0,0,0,0,0,0,0,0,0,0,0,0,0,0,0,0,0,-0.2191,-0.2193,0,-0.2357,-0.2359,-0.2361,-0.2405,-0.2403,-0.2402,-0.2401,-0.2409,-0.241,-0.2412,0,0,0,0,0,0,0,0,0,0,0,0,0,-0.2073,-0.2074,-0.2191,-0.2193,-0.2195,-0.2356,-0.2359,-0.2361,-0.2405,-0.2403,-0.2402,-0.2401,-0.2409,-0.241,-0.2412,0,0,0,0,0,0,0,0,0,0,0,0,0,-0.2171,-0.2074,-0.2191,-0.2235,-0.224,-0.2356,-0.2359,-0.2362,-0.2405,-0.2403,-0.2401,-0.24,-0.2408,-0.241,-0.2412,-0.2459,0,0,-0.2418,-0.2419,0,0,0,0,0,0,0,0,-0.2165,-0.2176,-0.2226,-0.2232,-0.2238,-0.2356,-0.232,-0.2386,-0.2405,-0.2345,-0.2401,-0.2399,-0.2377,-0.2382,-0.2422,-0.246,-0.246,-0.2418,-0.2419,-0.242,-0.2421,0,0,0,0,0,0,0,-0.2158,-0.217,-0.2259,-0.2229,-0.2236,-0.2301,-0.2312,-0.2335,-0.2367,-0.235,-0.2353,-0.2369,-0.2379,-0.242,-0.2421,-0.246,-0.2418,-0.242,-0.2421,-0.2422,-0.252,-0.2522,0,0,0,0,0,0,-0.2128,-0.2163,-0.2253,-0.2263,-0.2195,-0.2303,-0.2316,-0.2322,-0.237,-0.2377,-0.237,-0.237,-0.2417,-0.2419,-0.2422,-0.2481,-0.242,-0.2422,-0.2423,-0.2519,-0.2521,-0.2522,0,0,0,0,0,0,-0.2125,-0.2134,-0.2247,-0.2216,-0.2234,-0.2306,-0.2314,-0.2326,-0.2357,-0.2387,-0.2391,-0.2385,-0.2416,-0.2419,-0.2455,-0.248,-0.2423,-0.2425,-0.2517,-0.252,-0.2522,-0.2597,0,0,0,0,0,0,-0.212,-0.2132,-0.2133,-0.2213,-0.2235,-0.23,-0.2316,-0.233,-0.2369,-0.237,-0.2402,-0.2402,-0.2415,-0.2452,-0.2457,-0.2482,-0.2426,-0.2515,-0.2518,-0.2521,-0.2593,-0.2602,-0.2609,0,0,0,0,0,-0.2115,-0.2126,-0.2132,-0.2143,-0.2231,-0.23,-0.2318,-0.2365,-0.2371,-0.2386,-0.2423,-0.2401,-0.2471,-0.2456,-0.2461,-0.2487,-0.2514,-0.2517,-0.2521,-0.2589,-0.26,-0.2609,0,0,0,0,0,0,-0.2081,-0.2134,-0.2141,-0.2167,-0.2219,-0.2306,-0.2333,-0.2363,-0.2412,-0.2417,-0.2431,-0.2435,-0.2483,-0.247,-0.2452,-0.2522,-0.2484,-0.2489,-0.2535,-0.2545,-0.2553,-0.2507,-0.2428,0,0,0,0,0,-0.2071,-0.2086,-0.2148,-0.2167,-0.2189,-0.2259,-0.2295,-0.2334,-0.2387,-0.2408,-0.2446,-0.2474,-0.2506,-0.251,-0.2547,-0.258,-0.2566,-0.2595,-0.2603,-0.261,-0.2576,-0.2619,-0.2628,-0.2533,-0.2533,-0.2533,0,0,-0.2064,-0.2094,-0.2103,-0.216,-0.2205,-0.2254,-0.2276,-0.2337,-0.2374,-0.2399,-0.2468,-0.2515,-0.2526,-0.2583,-0.2598,-0.2568,-0.2633,-0.2614,-0.262,-0.2581,-0.2623,-0.2632,-0.2641,-0.2535,-0.2535,-0.2534,0,0,-0.2066,-0.208,-0.2097,-0.2138,-0.2205,-0.2256,-0.2265,-0.2364,-0.2393,-0.2469,-0.2503,-0.2565,-0.2611,-0.2645,-0.2654,-0.272,-0.2689,-0.2723,-0.2713,-0.2758,-0.2766,-0.2772,-0.2779,-0.2785,-0.2711,-0.2711,-0.2711,0,-0.2053,-0.208,-0.2116,-0.2149,-0.2184,-0.2247,-0.2287,-0.2335,-0.2441,-0.2471,-0.2486,-0.2612,-0.2639,-0.2688,-0.2716,-0.2739,-0.2736,-0.268,-0.2769,-0.2775,-0.278,-0.2785,-0.2791,-0.2715,-0.2715,-0.2714,-0.2714,0,-0.2075,-0.2097,-0.2113,-0.2165,-0.2211,-0.2258,-0.2324,-0.2385,-0.2438,-0.2495,-0.2578,-0.2651,-0.2709,-0.2743,-0.2744,-0.2798,-0.2777,-0.2792,-0.2743,-0.2794,-0.2796,-0.2801,-0.2721,-0.2719,-0.2718,-0.2717,0,0,-0.2034,-0.2111,-0.2112,-0.2135,-0.2224,-0.2264,-0.2327,-0.24,-0.2439,-0.254,-0.2601,-0.2683,-0.2729,-0.274,-0.2779,-0.2809,-0.2873,-0.2801,-0.2802,-0.2803,-0.2938,-0.2733,-0.2718,-0.2904,-0.2905,-0.2906,-0.2928,0,-0.2033,-0.2084,-0.2131,-0.2183,-0.2216,-0.2289,-0.2334,-0.2411,-0.2485,-0.2569,-0.2635,-0.2709,-0.2719,-0.2766,-0.2802,-0.2875,-0.2885,-0.2862,-0.2888,-0.2887,-0.2696,-0.2717,-0.2513,-0.2497,-0.2933,-0.2934,-0.2934,0,-0.2028,-0.2066,-0.2112,-0.2182,-0.2201,-0.2244,-0.2333,-0.2388,-0.2497,-0.2553,-0.2638,-0.2703,-0.2781,-0.2786,-0.2877,-0.286,-0.2878,-0.2914,-0.2917,-0.2687,-0.2689,-0.2514,-0.249,-0.2942,-0.2941,-0.2941,-0.294,0,-0.197,-0.2043,-0.2075,-0.2102,-0.22,-0.2227,-0.2279,-0.2381,-0.243,-0.2546,-0.2605,-0.2706,-0.2772,-0.2825,-0.2889,-0.2892,-0.2972,-0.3001,-0.282,-0.2807,-0.261,-0.2574,-0.3024,-0.3024,-0.3024,-0.3024,-0.3024,0,-0.1943,-0.1962,-0.2045,-0.2063,-0.2098,-0.2179,-0.2231,-0.23,-0.241,-0.2452,-0.2578,-0.2622,-0.2783,-0.2853,-0.2894,-0.2851,-0.2976,-0.2788,-0.279,-0.2628,-0.2596,-0.2959,-0.2951,-0.3025,-0.3025,-0.3025,-0.3024,0,-0.1866,-0.1926,-0.1959,-0.2045,-0.2071,-0.209,-0.2189,-0.2222,-0.2331,-0.24,-0.2434,-0.2588,-0.2627,-0.2745,-0.2849,-0.2827,-0.2839,-0.2785,-0.2555,-0.2523,-0.2642,-0.2638,-0.2584,-0.2576,-0.257,-0.2565,-0.2561,0,-0.1832,-0.1842,-0.1918,-0.193,-0.1962,-0.2012,-0.2038,-0.2163,-0.2202,-0.2338,-0.2352,-0.244,-0.2442,-0.2512,-0.2496,-0.2494,-0.2643,-0.2303,-0.2245,-0.2585,-0.2594,-0.26,-0.2604,-0.2048,-0.204,-0.2034,-0.2028,0,-0.1758,-0.1779,-0.1806,-0.1831,-0.1854,-0.189,-0.1939,-0.1968,-0.2089,-0.2142,-0.2184,-0.2203,-0.2203,-0.2102,-0.2086,-0.2065,-0.2288,-0.2155,-0.2613,-0.2155,-0.2071,-0.2083,-0.2107,-0.1969,-0.1975,-0.1979,-0.1982,-0.1985,-0.1684,-0.1677,-0.1707,-0.1715,-0.1742,-0.1747,-0.1733,-0.1789,-0.1827,-0.1862,-0.1945,-0.1901,-0.192,-0.1745,-0.1674,-0.1634,-0.1794,-0.1774,-0.1801,-0.1833,-0.173,-0.1635,-0.1432,-0.1435,-0.1437,-0.1439,-0.1441,0,-0.159,-0.159,-0.1589,-0.1599,-0.1568,-0.1627,-0.1643,-0.1608,-0.1584,-0.1621,-0.1617,-0.1456,-0.1346,-0.1373,-0.1192,-0.1153,-0.1206,-0.1121,-0.1217,-0.1274,-0.1325,-0.1203,-0.0763,-0.0761,-0.076,-0.0758,0,0,-0.1543,-0.1505,-0.1499,-0.1423,-0.1419,-0.135,-0.1329,-0.1295,-0.1297,-0.1242,-0.1212,-0.1286,-0.1324,-0.1055,-0.098,-0.0846,-0.1061,-0.0793,-0.1334,-0.1504,-0.1553,-0.1688,-0.1559,0,0,0,0,0]},{"header":{"parameterUnit":"m.s-1","parameterCategory":2,"la1":30.2991,"la2":30.254,"lo1":-89.0895,"lo2":-89.0444,"dy":0.0017,"dx":0.0017,"nx":28,"ny":28,"refTime":"2024-08-20T09:00:00:Z","depth":"2","parameterNumber":3,"parameterNumberName":"V-component_of_CURRENTS"},"data":[0,0,0,0,0,0,0,0,0,0,0,0,0,0,0,0,0,0,0,0,0,0,0,0,0,0,0,0,0,0,0,0,0,0,0,0,0,0,0,0,0,0,0,0,0,0,0,0,0,0,0,0,0,0,0,0,0,0,-0.0109,-0.0109,0,-0.0073,-0.0073,-0.0072,-0.0041,-0.0041,-0.004,-0.004,0.0019,0.002,0.0022,0,0,0,0,0,0,0,0,0,0,0,0,0,-0.0127,-0.0127,-0.0109,-0.0109,-0.0109,-0.0073,-0.0073,-0.0072,-0.0041,-0.0041,-0.004,-0.004,0.0019,0.002,0.0022,0,0,0,0,0,0,0,0,0,0,0,0,0,-0.0107,-0.0127,-0.0109,-0.009,-0.0088,-0.0073,-0.0073,-0.0072,-0.0041,-0.0041,-0.004,-0.004,0.0018,0.002,0.0022,0.0028,0,0,0.0028,0.0029,0,0,0,0,0,0,0,0,-0.0108,-0.0106,-0.0093,-0.0091,-0.0089,-0.0062,-0.0057,-0.0038,-0.0041,-0.0057,-0.004,-0.004,-0.0007,-0.0003,0.0005,0.003,0.0033,0.0028,0.003,0.003,0.0031,0,0,0,0,0,0,0,-0.0109,-0.0107,-0.0093,-0.0093,-0.009,-0.0075,-0.0072,-0.0053,-0.0033,-0.0056,-0.0054,-0.0052,-0.0006,0.0002,0.0006,0.0034,0.0028,0.003,0.0031,0.0032,0.0073,0.0073,0,0,0,0,0,0,-0.0118,-0.0109,-0.0095,-0.0093,-0.0099,-0.0075,-0.0071,-0.007,-0.0034,-0.0028,-0.0052,-0.0051,-0.0001,0.0004,0.0008,0.0017,0.003,0.0032,0.0034,0.0073,0.0073,0.0073,0,0,0,0,0,0,-0.0119,-0.0117,-0.0096,-0.0101,-0.0097,-0.0075,-0.0074,-0.007,-0.0063,-0.0032,-0.0026,-0.0051,-0.0001,0.0006,0.0019,0.002,0.0033,0.0035,0.0074,0.0073,0.0073,0.0035,0,0,0,0,0,0,-0.012,-0.0118,-0.0124,-0.0102,-0.0097,-0.0094,-0.0074,-0.0069,-0.0063,-0.0061,-0.0028,-0.0022,0.0,0.0015,0.0021,0.0023,0.0037,0.0074,0.0073,0.0073,0.0036,0.0033,0.0031,0,0,0,0,0,-0.012,-0.0131,-0.0124,-0.0123,-0.0105,-0.0094,-0.0091,-0.0073,-0.0064,-0.0065,-0.0044,-0.0023,0.0018,0.0017,0.0023,0.0026,0.0074,0.0073,0.0073,0.0038,0.0034,0.0031,0,0,0,0,0,0,-0.0146,-0.0129,-0.012,-0.0127,-0.0114,-0.009,-0.0093,-0.0078,-0.0062,-0.0062,-0.0028,-0.0021,-0.0004,0.0012,0.001,0.0037,0.0051,0.0052,0.0021,0.0018,0.0016,0.001,0.0038,0,0,0,0,0,-0.0154,-0.0157,-0.0136,-0.0144,-0.0139,-0.0117,-0.0112,-0.0099,-0.0081,-0.0074,-0.0051,-0.0027,-0.0,0.0008,0.0033,0.004,0.0062,0.0047,0.0045,0.0042,0.0041,0.0069,0.0068,0.0072,0.0072,0.0072,0,0,-0.0167,-0.0159,-0.0161,-0.0149,-0.0139,-0.014,-0.0113,-0.011,-0.0105,-0.007,-0.0062,-0.0034,0.0001,0.0016,0.0024,0.0027,0.0053,0.0042,0.0039,0.004,0.0068,0.0068,0.0068,0.0072,0.0072,0.0072,0,0,-0.02,-0.0187,-0.0202,-0.0192,-0.0181,-0.0164,-0.0165,-0.0144,-0.0127,-0.0116,-0.0084,-0.006,-0.003,-0.0002,0.0017,0.0012,0.0042,0.0019,-0.0004,0.0022,0.0022,0.0022,0.0049,0.0052,0.0012,0.0012,0.0012,0,-0.0217,-0.0231,-0.0206,-0.0216,-0.0214,-0.0177,-0.0191,-0.0167,-0.0144,-0.0133,-0.012,-0.0065,-0.0035,-0.0006,-0.0005,0.0007,0.0024,0.0004,0.0018,0.0019,0.0019,0.0048,0.0051,0.001,0.0011,0.0011,0.0011,0,-0.0261,-0.0268,-0.0277,-0.0275,-0.0267,-0.0273,-0.0238,-0.0225,-0.0201,-0.0176,-0.0143,-0.0098,-0.0069,-0.005,-0.0028,-0.0006,0.0005,0.0015,0.0025,0.0017,0.0047,0.0052,0.0008,0.0008,0.0009,0.0009,0,0,-0.0305,-0.0309,-0.0311,-0.0324,-0.0299,-0.0302,-0.0284,-0.0263,-0.0257,-0.0214,-0.0203,-0.0142,-0.0118,-0.0094,-0.0058,-0.003,-0.0005,-0.0012,-0.001,0.0012,0.0051,0.0075,0.0082,0.0003,0.0004,0.0004,0.0069,0,-0.0348,-0.0391,-0.0369,-0.0398,-0.0417,-0.0371,-0.0359,-0.033,-0.0295,-0.0272,-0.0205,-0.018,-0.0133,-0.0123,-0.0086,-0.002,0.0005,-0.0023,0.0058,0.0061,0.008,0.0088,0.0082,0.0141,0.0074,0.0075,0.0075,0,-0.0393,-0.0419,-0.0462,-0.0467,-0.0469,-0.0471,-0.0452,-0.0437,-0.0379,-0.035,-0.0304,-0.0254,-0.0191,-0.016,-0.0051,-0.0074,-0.002,0.0032,0.0035,0.0075,0.0093,0.0138,0.0152,0.0084,0.0083,0.0082,0.0082,0,-0.0449,-0.0475,-0.0517,-0.0519,-0.0518,-0.052,-0.0513,-0.0467,-0.0458,-0.0403,-0.0392,-0.0305,-0.0268,-0.0179,-0.006,-0.0063,0.0058,0.0066,0.0139,0.0141,0.0162,0.0165,0.0126,0.0126,0.0126,0.0126,0.0126,0,-0.0501,-0.0531,-0.055,-0.0574,-0.0615,-0.0584,-0.0605,-0.0576,-0.0539,-0.0538,-0.0444,-0.042,-0.0274,-0.0183,-0.0078,0.0054,0.0044,0.0141,0.0161,0.0149,0.015,0.012,0.0118,0.0128,0.0128,0.0127,0.0127,0,-0.0549,-0.0562,-0.0614,-0.0636,-0.0645,-0.0674,-0.0677,-0.0686,-0.0637,-0.0632,-0.0619,-0.0505,-0.0381,-0.0228,-0.0074,0.0024,0.0151,0.0192,0.0172,0.0189,0.022,0.0215,0.028,0.0282,0.0283,0.0284,0.0285,0,-0.0578,-0.0611,-0.0671,-0.0706,-0.0718,-0.0753,-0.0773,-0.0743,-0.0748,-0.0684,-0.0686,-0.0567,-0.0477,-0.0223,-0.0029,0.0167,0.0169,0.0271,0.0268,0.0223,0.0236,0.023,0.0224,0.0282,0.0282,0.0283,0.0283,0,-0.0628,-0.0648,-0.0695,-0.0774,-0.0815,-0.0864,-0.0887,-0.0902,-0.0862,-0.0833,-0.0768,-0.069,-0.0452,-0.0218,0.004,0.0151,0.0246,0.0289,0.0252,0.024,0.0229,0.024,0.0234,0.0289,0.0288,0.0288,0.0288,0.0287,-0.0655,-0.0704,-0.0765,-0.0834,-0.089,-0.0949,-0.0977,-0.0984,-0.0981,-0.0911,-0.0831,-0.0668,-0.0455,-0.0074,0.0113,0.03,0.0277,0.0347,0.0343,0.0339,0.0325,0.0315,0.0389,0.0389,0.0389,0.0389,0.0389,0,-0.0684,-0.0743,-0.0817,-0.0903,-0.0969,-0.0985,-0.1031,-0.1034,-0.1021,-0.0917,-0.082,-0.0562,-0.029,-0.0058,0.0237,0.0394,0.038,0.0429,0.0391,0.0385,0.0379,0.0365,0.0442,0.0442,0.0443,0.0444,0,0,-0.0703,-0.0779,-0.0824,-0.0942,-0.1,-0.1063,-0.1083,-0.1073,-0.0997,-0.0891,-0.0739,-0.055,-0.0269,-0.0042,0.0157,0.032,0.031,0.0332,0.0273,0.0198,0.0191,0.0315,0.0284,0,0,0,0,0]}],[{"header":{"parameterUnit":"m.s-1","parameterCategory":2,"la1":30.2991,"la2":30.254,"lo1":-89.0895,"lo2":-89.0444,"dy":0.0017,"dx":0.0017,"nx":28,"ny":28,"refTime":"2024-08-20T09:00:00:Z","depth":"4","parameterNumber":2,"parameterNumberName":"U-component_of_CURRENTS"},"data":[0,0,0,0,0,0,0,0,0,0,0,0,0,0,0,0,0,0,0,0,0,0,0,0,0,0,0,0,0,0,0,0,0,0,0,0,0,0,0,0,0,0,0,0,0,0,0,0,0,0,0,0,0,0,0,0,0,0,-0.1322,-0.1321,0,-0.1262,-0.1262,-0.1261,-0.1247,-0.1247,-0.1247,-0.1247,-0.1262,-0.1263,-0.1263,0,0,0,0,0,0,0,0,0,0,0,0,0,-0.1391,-0.139,-0.1322,-0.1321,-0.132,-0.1262,-0.1262,-0.1261,-0.1247,-0.1247,-0.1247,-0.1247,-0.1262,-0.1263,-0.1263,0,0,0,0,0,0,0,0,0,0,0,0,0,-0.1352,-0.139,-0.1322,-0.1304,-0.1302,-0.1262,-0.1262,-0.1261,-0.1247,-0.1247,-0.1247,-0.1247,-0.1262,-0.1263,-0.1263,-0.126,0,0,-0.1264,-0.1264,0,0,0,0,0,0,0,0,-0.1354,-0.1349,-0.1308,-0.1305,-0.1303,-0.126,-0.1291,-0.1263,-0.1247,-0.127,-0.1247,-0.1248,-0.1267,-0.1267,-0.1257,-0.1261,-0.1261,-0.1264,-0.1264,-0.1265,-0.1265,0,0,0,0,0,0,0,-0.1357,-0.1352,-0.1301,-0.1307,-0.1303,-0.1288,-0.1283,-0.1286,-0.1271,-0.1268,-0.1266,-0.1256,-0.1266,-0.1257,-0.1258,-0.1262,-0.1264,-0.1264,-0.1265,-0.1265,-0.1317,-0.1318,0,0,0,0,0,0,-0.136,-0.1354,-0.1303,-0.1299,-0.1327,-0.1286,-0.1281,-0.1275,-0.1269,-0.1267,-0.1256,-0.1255,-0.1256,-0.1257,-0.1258,-0.1306,-0.1265,-0.1265,-0.1265,-0.1316,-0.1317,-0.1318,0,0,0,0,0,0,-0.1362,-0.1357,-0.1305,-0.1323,-0.1315,-0.1285,-0.1278,-0.1274,-0.128,-0.1258,-0.1258,-0.1267,-0.1256,-0.1258,-0.128,-0.1305,-0.1265,-0.1265,-0.1314,-0.1316,-0.1318,-0.1369,0,0,0,0,0,0,-0.1365,-0.1358,-0.1375,-0.1323,-0.1314,-0.1293,-0.1278,-0.1273,-0.127,-0.127,-0.1268,-0.1269,-0.1257,-0.128,-0.128,-0.1305,-0.1266,-0.1313,-0.1315,-0.1317,-0.1366,-0.1372,-0.1378,0,0,0,0,0,-0.1367,-0.1383,-0.1376,-0.137,-0.1332,-0.1293,-0.1287,-0.1268,-0.1271,-0.1275,-0.1281,-0.127,-0.1294,-0.1281,-0.1281,-0.1307,-0.1312,-0.1314,-0.1317,-0.1363,-0.1371,-0.1378,0,0,0,0,0,0,-0.1412,-0.1381,-0.1373,-0.1376,-0.1342,-0.129,-0.1297,-0.128,-0.1285,-0.1299,-0.1283,-0.1284,-0.1312,-0.1304,-0.129,-0.1328,-0.1302,-0.1305,-0.1337,-0.1344,-0.135,-0.1354,-0.1266,0,0,0,0,0,-0.1431,-0.1442,-0.1393,-0.1397,-0.1386,-0.1347,-0.1337,-0.132,-0.1305,-0.1307,-0.1307,-0.1313,-0.132,-0.1329,-0.1332,-0.1354,-0.1345,-0.1371,-0.1377,-0.1382,-0.1386,-0.1391,-0.1397,-0.1327,-0.1327,-0.1327,0,0,-0.1447,-0.1433,-0.1438,-0.1409,-0.1387,-0.1371,-0.1343,-0.1331,-0.1328,-0.1311,-0.1333,-0.1336,-0.1331,-0.1354,-0.1366,-0.1353,-0.1401,-0.1386,-0.139,-0.1391,-0.1394,-0.1401,-0.1407,-0.1329,-0.1328,-0.1328,0,0,-0.1473,-0.1473,-0.1488,-0.1465,-0.1438,-0.1409,-0.141,-0.1374,-0.1374,-0.1384,-0.1377,-0.1394,-0.1404,-0.1402,-0.1402,-0.1444,-0.1432,-0.1454,-0.1488,-0.1493,-0.1499,-0.1503,-0.1511,-0.1516,-0.1457,-0.1458,-0.1458,0,-0.1493,-0.15,-0.1483,-0.148,-0.1469,-0.143,-0.1427,-0.1414,-0.1394,-0.1407,-0.1402,-0.1431,-0.1423,-0.1448,-0.1461,-0.1457,-0.1462,-0.146,-0.15,-0.1505,-0.1509,-0.1515,-0.152,-0.146,-0.146,-0.146,-0.1459,0,-0.1507,-0.1525,-0.1528,-0.1518,-0.1506,-0.1497,-0.1466,-0.1468,-0.1469,-0.1464,-0.1499,-0.1491,-0.1507,-0.151,-0.1496,-0.1529,-0.1526,-0.1506,-0.148,-0.1519,-0.1523,-0.1528,-0.1464,-0.1463,-0.1462,-0.1462,0,0,-0.1497,-0.1536,-0.1535,-0.1552,-0.1527,-0.1514,-0.1518,-0.151,-0.1529,-0.1532,-0.1562,-0.1571,-0.1579,-0.1579,-0.1572,-0.1576,-0.1604,-0.1561,-0.156,-0.1566,-0.1628,-0.1543,-0.1539,-0.1598,-0.1599,-0.16,-0.1623,0,-0.1505,-0.1536,-0.1547,-0.1567,-0.1571,-0.1556,-0.1564,-0.1563,-0.1567,-0.159,-0.1595,-0.1625,-0.1602,-0.1621,-0.1622,-0.1606,-0.1617,-0.16,-0.1591,-0.1591,-0.1508,-0.1541,-0.1602,-0.1625,-0.1626,-0.1627,-0.1627,0,-0.1484,-0.152,-0.1556,-0.1605,-0.1607,-0.1619,-0.1631,-0.1637,-0.1655,-0.1666,-0.1693,-0.1698,-0.1711,-0.1683,-0.1681,-0.1677,-0.1662,-0.1647,-0.1647,-0.155,-0.1513,-0.1577,-0.1634,-0.1634,-0.1633,-0.1633,-0.1632,0,-0.1452,-0.1512,-0.1555,-0.1562,-0.1608,-0.1635,-0.1656,-0.1672,-0.1694,-0.1724,-0.1751,-0.1763,-0.1775,-0.1758,-0.1719,-0.1711,-0.1712,-0.169,-0.1605,-0.1599,-0.1646,-0.164,-0.1698,-0.1698,-0.1698,-0.1698,-0.1698,0,-0.1417,-0.1451,-0.1559,-0.1571,-0.1624,-0.1659,-0.1705,-0.1716,-0.1764,-0.1783,-0.1804,-0.1817,-0.1796,-0.1787,-0.1748,-0.1683,-0.1733,-0.1616,-0.1598,-0.1669,-0.1665,-0.1649,-0.1643,-0.1698,-0.1698,-0.1698,-0.1698,0,-0.1343,-0.1417,-0.1471,-0.1569,-0.1605,-0.1637,-0.1727,-0.1743,-0.181,-0.1831,-0.1847,-0.1872,-0.185,-0.1825,-0.1789,-0.1712,-0.1663,-0.1633,-0.1722,-0.1707,-0.1545,-0.1541,-0.154,-0.1537,-0.1535,-0.1533,-0.1531,0,-0.1306,-0.1332,-0.1454,-0.1486,-0.1535,-0.1609,-0.1635,-0.1731,-0.1743,-0.1841,-0.1829,-0.187,-0.1856,-0.1738,-0.1732,-0.166,-0.1634,-0.1598,-0.1559,-0.1545,-0.1529,-0.1529,-0.1529,-0.1527,-0.1526,-0.1526,-0.1525,0,-0.123,-0.1286,-0.1331,-0.1402,-0.1456,-0.1505,-0.1568,-0.1586,-0.1669,-0.1768,-0.1751,-0.1737,-0.172,-0.167,-0.1628,-0.1577,-0.1608,-0.1573,-0.1577,-0.154,-0.153,-0.1516,-0.1518,-0.1517,-0.1518,-0.1519,-0.1519,0,-0.117,-0.1183,-0.1252,-0.1293,-0.1359,-0.1368,-0.1425,-0.1448,-0.1498,-0.1611,-0.1606,-0.1646,-0.1701,-0.1631,-0.1595,-0.1533,-0.1504,-0.1428,-0.1439,-0.1449,-0.1404,-0.1378,-0.1306,0,0,0,0,0,-0.1106,-0.1106,-0.1135,-0.1178,-0.1229,-0.1265,-0.135,-0.1407,-0.1518,-0.1456,-0.153,-0.1505,-0.1472,-0.1511,-0.1423,-0.1556,-0.1506,-0.1448,-0.1425,-0.1471,-0.148,-0.1435,0,0,0,0,0,0,-0.1064,-0.1093,-0.1097,-0.1066,-0.1065,-0.1109,-0.1156,-0.123,-0.1213,-0.133,-0.1317,-0.1409,-0.1396,-0.1488,-0.139,-0.1397,-0.1348,-0.149,-0.1486,-0.1465,-0.1474,-0.1482,-0.1438,0,0,0,0,0]},{"header":{"parameterUnit":"m.s-1","parameterCategory":2,"la1":30.2991,"la2":30.254,"lo1":-89.0895,"lo2":-89.0444,"dy":0.0017,"dx":0.0017,"nx":28,"ny":28,"refTime":"2024-08-20T09:00:00:Z","depth":"4","parameterNumber":3,"parameterNumberName":"V-component_of_CURRENTS"},"data":[0,0,0,0,0,0,0,0,0,0,0,0,0,0,0,0,0,0,0,0,0,0,0,0,0,0,0,0,0,0,0,0,0,0,0,0,0,0,0,0,0,0,0,0,0,0,0,0,0,0,0,0,0,0,0,0,0,0,-0.0086,-0.0086,0,-0.0062,-0.0061,-0.0061,-0.0038,-0.0038,-0.0038,-0.0037,0.0012,0.0013,0.0015,0,0,0,0,0,0,0,0,0,0,0,0,0,-0.0093,-0.0093,-0.0086,-0.0086,-0.0086,-0.0062,-0.0061,-0.0061,-0.0038,-0.0038,-0.0038,-0.0037,0.0012,0.0013,0.0015,0,0,0,0,0,0,0,0,0,0,0,0,0,-0.0079,-0.0093,-0.0086,-0.0073,-0.0072,-0.0062,-0.0061,-0.0061,-0.0038,-0.0038,-0.0037,-0.0037,0.0011,0.0013,0.0015,0.0024,0,0,0.0021,0.0022,0,0,0,0,0,0,0,0,-0.008,-0.0079,-0.0075,-0.0074,-0.0073,-0.0055,-0.0046,-0.0032,-0.0038,-0.0048,-0.0037,-0.0037,-0.0009,-0.0006,0.0001,0.0026,0.0028,0.0021,0.0022,0.0023,0.0023,0,0,0,0,0,0,0,-0.0081,-0.008,-0.0074,-0.0075,-0.0074,-0.0062,-0.006,-0.0043,-0.0028,-0.0047,-0.0046,-0.0047,-0.0008,-0.0,0.0003,0.0029,0.0021,0.0022,0.0024,0.0024,0.0032,0.0031,0,0,0,0,0,0,-0.009,-0.0081,-0.0075,-0.0074,-0.0079,-0.0062,-0.006,-0.0059,-0.0028,-0.0024,-0.0047,-0.0046,-0.0004,0.0001,0.0005,0.0009,0.0023,0.0025,0.0026,0.0033,0.0032,0.0031,0,0,0,0,0,0,-0.009,-0.0089,-0.0076,-0.0078,-0.0076,-0.0063,-0.0061,-0.0058,-0.0054,-0.0029,-0.0024,-0.0046,-0.0003,0.0002,0.0016,0.0011,0.0025,0.0027,0.0034,0.0032,0.0031,0.0023,0,0,0,0,0,0,-0.009,-0.009,-0.0094,-0.0079,-0.0077,-0.0077,-0.0062,-0.0058,-0.0055,-0.0054,-0.0027,-0.0022,-0.0003,0.0013,0.0018,0.0014,0.0029,0.0035,0.0033,0.0032,0.0024,0.0022,0.0019,0,0,0,0,0,-0.0091,-0.0098,-0.0094,-0.0094,-0.0082,-0.0078,-0.0075,-0.0063,-0.0056,-0.0057,-0.0037,-0.0023,0.0005,0.0014,0.002,0.0017,0.0036,0.0034,0.0032,0.0026,0.0022,0.0019,0,0,0,0,0,0,-0.0106,-0.0097,-0.0092,-0.0097,-0.0091,-0.0075,-0.0078,-0.0067,-0.0053,-0.0051,-0.0024,-0.0018,-0.001,-0.0001,0.0009,0.0009,0.0018,0.0017,0.0012,0.0009,0.0006,0.0003,0.003,0,0,0,0,0,-0.0112,-0.0116,-0.0104,-0.0111,-0.0108,-0.0093,-0.009,-0.0082,-0.0068,-0.0061,-0.0041,-0.0026,-0.0015,-0.0006,0.0005,0.0013,0.004,0.0009,0.0006,0.0004,0.0003,0.0037,0.0038,0.0024,0.0024,0.0024,0,0,-0.0121,-0.0117,-0.012,-0.0115,-0.0108,-0.0111,-0.0091,-0.0091,-0.0092,-0.0058,-0.0051,-0.0033,-0.0016,-0.0009,-0.0006,0.0001,0.0023,0.0001,-0.0,-0.0,0.0035,0.0037,0.0038,0.0022,0.0023,0.0023,0,0,-0.0147,-0.0137,-0.0151,-0.0145,-0.0141,-0.0129,-0.0131,-0.0114,-0.0106,-0.0097,-0.0076,-0.0058,-0.0042,-0.0025,-0.0016,-0.003,0.0006,-0.0035,-0.0043,-0.001,-0.0008,-0.0006,0.0042,0.0049,-0.0034,-0.0034,-0.0034,0,-0.0161,-0.0174,-0.0155,-0.0164,-0.0166,-0.0139,-0.0153,-0.0138,-0.012,-0.0114,-0.0101,-0.007,-0.005,-0.0036,-0.0039,-0.0033,-0.0004,-0.0027,-0.0011,-0.0009,-0.0006,0.0043,0.005,-0.0035,-0.0035,-0.0034,-0.0034,0,-0.0196,-0.0204,-0.0211,-0.0213,-0.0209,-0.0216,-0.0195,-0.0187,-0.017,-0.0154,-0.0136,-0.01,-0.0083,-0.0074,-0.0055,-0.0036,-0.0016,-0.0016,0.0004,-0.0005,0.0047,0.0055,-0.0036,-0.0035,-0.0035,-0.0035,0,0,-0.0228,-0.0237,-0.0238,-0.0252,-0.0236,-0.024,-0.0233,-0.0224,-0.0225,-0.0191,-0.0186,-0.0148,-0.0123,-0.0112,-0.0083,-0.0045,0.0008,-0.0023,-0.0021,0.0037,0.0097,0.0064,0.007,0.0015,0.0016,0.0016,0.0132,0,-0.0263,-0.0302,-0.0287,-0.0315,-0.0331,-0.03,-0.0297,-0.0281,-0.0259,-0.0244,-0.0194,-0.0181,-0.014,-0.0129,-0.0084,-0.0022,0.0025,-0.0023,0.0086,0.0089,0.0071,0.0076,0.0019,0.0138,0.014,0.0141,0.0142,0,-0.0297,-0.0322,-0.0362,-0.0373,-0.0376,-0.0383,-0.0376,-0.0371,-0.0333,-0.0312,-0.0275,-0.0238,-0.0177,-0.0148,-0.0024,-0.0055,0.0019,0.0076,0.0082,0.0057,0.0069,0.0143,0.0157,0.0156,0.0155,0.0154,0.0153,0,-0.0337,-0.0366,-0.0406,-0.041,-0.0418,-0.0426,-0.0425,-0.0398,-0.0397,-0.0358,-0.0349,-0.0272,-0.0236,-0.0134,-0.0017,-0.0016,0.0122,0.0134,0.0181,0.0181,0.0183,0.0179,0.0222,0.0222,0.0222,0.0221,0.0221,0,-0.0372,-0.0402,-0.0433,-0.0455,-0.0498,-0.0478,-0.0506,-0.0487,-0.0464,-0.0468,-0.0393,-0.0372,-0.0232,-0.014,-0.0025,0.0099,0.0117,0.0184,0.0204,0.0177,0.0171,0.019,0.0185,0.0226,0.0225,0.0224,0.0223,0,-0.04,-0.0421,-0.0472,-0.0505,-0.052,-0.0549,-0.0568,-0.0581,-0.0548,-0.0548,-0.0538,-0.0439,-0.0321,-0.0178,-0.0009,0.0075,0.0201,0.0241,0.0211,0.0227,0.025,0.0243,0.0316,0.0315,0.0315,0.0315,0.0315,0,-0.0416,-0.0447,-0.0517,-0.0555,-0.0574,-0.0616,-0.0642,-0.0628,-0.0635,-0.059,-0.0588,-0.0485,-0.0409,-0.0176,-0.0034,0.0179,0.0202,0.0278,0.0261,0.0245,0.0258,0.0251,0.0244,0.0314,0.0314,0.0314,0.0314,0,-0.0444,-0.0473,-0.0517,-0.0601,-0.0649,-0.07,-0.0732,-0.074,-0.0716,-0.0698,-0.0618,-0.0501,-0.0372,-0.019,-0.0034,0.0117,0.0233,0.0276,0.0278,0.0263,0.0244,0.0256,0.0249,0.0313,0.0313,0.0313,0.0313,0,-0.0459,-0.0501,-0.0565,-0.0632,-0.0701,-0.0752,-0.0769,-0.0762,-0.0758,-0.0694,-0.0674,-0.0523,-0.0431,-0.0223,-0.0079,0.0059,0.0099,0.0155,0.0164,0.0167,0.0076,0.0029,0.0051,0,0,0,0,0,-0.0468,-0.0519,-0.0589,-0.0667,-0.0736,-0.0772,-0.0811,-0.0813,-0.0798,-0.0746,-0.0702,-0.0579,-0.0362,-0.0264,-0.0129,-0.0094,0.0112,0.0067,0.0177,0.0308,0.0309,0.0223,0,0,0,0,0,0,-0.0477,-0.0546,-0.0589,-0.0677,-0.073,-0.0802,-0.0825,-0.0818,-0.0773,-0.0737,-0.0617,-0.0552,-0.0338,-0.044,-0.0128,-0.0088,-0.0,0.017,0.0173,0.0307,0.0308,0.0309,0.0221,0,0,0,0,0]}]]